Tracking 19846 objects as of 18-Sep-2019
HD Live streaming from Space Station
objects crossing your sky now

FOX-1D (AO-92)

Track FOX-1D (AO-92) now!
10-day predictions
FOX-1D (AO-92) is classified as:


NORAD ID: 43137
Int'l Code: 2018-004A
Perigee: 496.8 km
Apogee: 507.5 km
Inclination: 97.5 °
Period: 94.5 minutes
Semi major axis: 6873 km
RCS: Unknown
Launch date: January 12, 2018
Source: United States (US)
Launch site: SRIHARIKOTA (SRI)

Uplink (MHz): 435.350/1267.350
Downlink (MHz): 145.880
Beacon (MHz): 145.880
Mode: FM CTCSS 67.0Hz/200bps DUV
Call sign:
Status: Active

aabbcc
Your satellite tracking list
Your tracking list is empty




NASA's NSSDC Master Catalog

Two Line Element Set (TLE):
1 43137U 18004AC  19261.12105651  .00000665  00000-0  30801-4 0  9994
2 43137  97.4799 328.6881 0007804 301.0063  59.0406 15.23586918 93412
Source of the keplerian elements: AMSAT